CW2882 Weather Reports


time (UTC)temp
F
wind
direction
speed
knots
gust
knots
rain 1hr
in
rain 24hr
in
rain mn
in
humidity
%
barometer
mb
20260505041550 55 77 2.6 7.0 0.00 0.00 0.00 81 1009.8
20260505040058 55 153 1.7 6.1 0.00 0.00 0.00 81 1009.6
20260505034545 55 149 0.9 6.1 0.00 0.00 0.00 81 1009.5
20260505033043 56 205 0.9 5.2 0.00 0.00 0.00 81 1009.3
20260505031642 57 124 0.9 4.3 0.00 0.00 0.00 80 1009.2
20260505030044 58 229 0.9 6.1 0.00 0.00 0.00 79 1009.0
20260505024541 58 71 0.9 7.0 0.00 0.00 0.00 78 1009.0
20260505023040 58 120 2.6 7.8 0.00 0.00 0.00 77 1009.0
20260505021538 59 161 4.3 8.7 0.00 0.00 0.00 77 1009.2
20260505020041 59 127 2.6 7.8 0.00 0.00 0.00 77 1009.2
20260505014540 59 146 3.5 9.6 0.00 0.00 0.00 76 1009.4
20260505013032 60 146 2.6 7.0 0.00 0.00 0.00 75 1009.4
20260505011534 62 172 3.5 7.8 0.00 0.00 0.00 73 1009.4
20260505010032 63 160 2.6 7.0 0.00 0.00 0.00 71 1009.6
20260505004530 64 197 2.6 7.0 0.00 0.00 0.00 69 1009.6
20260505003028 66 158 2.6 6.1 0.00 0.00 0.00 63 1009.7
20260505001528 67 160 1.7 6.1 0.00 0.00 0.00 60 1009.7
20260505000041 68 192 1.7 6.1 0.00 0.00 0.00 60 1009.8
20260504234527 68 236 2.6 5.2 0.00 0.00 0.00 60 1009.9
20260504233025 68 150 2.6 6.1 0.00 0.00 0.00 59 1009.9
20260504231524 68 188 1.7 9.6 0.00 0.00 0.00 59 1010.1
20260504230024 67 229 1.7 7.0 0.00 0.00 0.00 63 1010.1
20260504224523 66 188 1.7 7.8 0.00 0.00 0.00 64 1010.2
20260504223023 67 184 2.6 7.0 0.00 0.00 0.00 64 1010.3
20260504221526 68 186 0.9 5.2 0.00 0.00 0.00 63 1010.3
20260504220039 68 256 2.6 7.8 0.00 0.00 0.00 61 1010.4
20260504214521 70 117 0.9 7.0 0.00 0.00 0.00 59 1010.5
20260504213021 72 136 1.7 6.1 0.00 0.00 0.00 57 1010.5
20260504211520 72 255 2.6 6.1 0.00 0.00 0.00 57 1010.5
20260504210019 73 236 0.0 2.6 0.00 0.00 0.00 59 1010.6
20260504204533 71 211 0.9 5.2 0.00 0.00 0.00 58 1010.7
20260504203019 71 162 1.7 5.2 0.00 0.00 0.00 60 1010.8
20260504201517 72 237 0.0 3.5 0.00 0.00 0.00 56 1011.0
20260504200014 71 262 0.9 4.3 0.00 0.00 0.00 58 1010.9
20260504194514 70 203 0.0 4.3 0.00 0.00 0.00 61 1010.9
20260504193012 69 193 2.6 6.1 0.00 0.00 0.00 60 1010.8
20260504191509 68 258 0.9 6.1 0.00 0.00 0.00 61 1010.9
20260504190012 69 260 0.9 6.1 0.00 0.00 0.00 62 1011.0
20260504184508 70 276 1.7 3.5 0.00 0.00 0.00 58 1011.0
20260504183006 69 245 0.9 2.6 0.00 0.00 0.00 59 1010.9
20260504181559 68 260 1.7 4.3 0.00 0.00 0.00 61 1011.0
20260504180137 67 276 1.7 5.2 0.00 0.00 0.00 64 1011.0
20260504174536 67 241 0.0 2.6 0.00 0.00 0.00 67 1011.1
20260504173032 65 128 0.0 2.6 0.00 0.00 0.00 67 1011.1
20260504171532 64 201 1.7 4.3 0.00 0.00 0.00 68 1011.1
20260504120109 53 160 0.0 0.0 0.00 0.00 0.00 81 1009.8
20260504081536 58 139 0.0 2.6 0.00 0.00 0.00 68 1009.7
20260504050015 61 209 0.0 0.9 0.00 0.00 0.00 62 1009.8
20260504044518 62 153 0.0 1.7 0.00 0.00 0.00 61 1009.9
20260504043024 63 158 0.0 0.9 0.00 0.00 0.00 61 1009.8